Regional Weather Roundup
Issued by NWS Sioux Falls, SD

Home | Current Version | Previous Version | Text Only | Print | Product List | Glossary On
Versions: 1 2 3 4 5 6 7 8 9 10 11 12 13 14 15 16 17 18 19 20 21 22 23 24 25 26 27 28 29 30 31 32 33 34 35 36 37 38 39 40 41 42 43 44 45 46 47 48 49 50
000
ASUS43 KFSD 280210
RWRFSD

WEATHER ROUNDUP FOR SE SOUTH DAKOTA/SW MINNESOTA/NW IOWA
NATIONAL WEATHER SERVICE SIOUX FALLS SD
900 PM CDT WED JUL 27 2016

NOTE: "FAIR" INDICATES FEW OR NO CLOUDS BELOW 12,000 FEET WITH NO
SIGNIFICANT WEATHER AND OR OBSTRUCTIONS TO VISIBILITY.


SDZ038>040-050-052>070-280300-
SOUTHEAST SOUTH DAKOTA

CITY           SKY/WX    TMP DP  RH WIND       PRES   REMARKS
BROOKINGS      CLOUDY    69  62  78 N6        30.05R
CHAMBERLAIN    LGT RAIN  78  65  65 CALM      30.06F
HURON          CLOUDY    74  63  68 N8        30.04R
MADISON        FAIR      68  68 100 N8        30.06R
MITCHELL       MOCLDY    76  65  68 NE6       30.03R
SIOUX FALLS    CLOUDY    72  64  76 N8        30.03R
WINNER         RAIN      65  61  87 N9        30.12R FOG
YANKTON        MOCLDY    77  63  61 N9        29.99R
$$

MNZ071-072-080-081-089-090-097-098-280300-
SOUTHWEST MINNESOTA

CITY           SKY/WX    TMP DP  RH WIND       PRES   REMARKS
FAIRMONT       MOCLDY    72  64  78 N8        29.96S
JACKSON        CLEAR     72  63  73 N3        30.00R
LUVERNE        CLEAR     72  61  68 N7        30.03R
MARSHALL       CLEAR     71  66  84 N5        30.01R
MONTEVIDEO     CLEAR     72  63  73 N9        30.01S
REDWOOD FALLS  CLEAR     73  65  75 NE5       29.97S
TRACY          CLEAR     72  64  77 N5        30.01R
WINDOM         CLEAR     70  64  83 N8        29.99S
WORTHINGTON    CLEAR     72  65  78 N8        30.02R
$$

IAZ001>003-012>014-020>022-031-032-NEZ013-014-SDZ071-280300-
NORTHWEST IOWA

CITY           SKY/WX    TMP DP  RH WIND       PRES   REMARKS
CHEROKEE       CLEAR     76  69  78 N6        29.99R
DENISON        CLEAR     77  70  78 NW3       29.95R
ESTHERVILLE    CLEAR     71  66  84 N9        29.96S
LE MARS        CLOUDY    79  68  69 N7        30.00R
SHELDON        PTCLDY    72  68  88 N6        30.00R
SIOUX CITY     CLOUDY    78  67  68 NW6       29.97R
SPENCER        CLEAR     74  65  73 N7        29.98R
STORM LAKE     PTCLDY    75  70  83 N8        29.99R
$$

ABBREVIATIONS USED IN REMARKS
   TC - TEMPERATURE IN CELSIUS
  WCI - WIND CHILL INDEX
   HX - HEAT INDEX
  VSB - VISIBILITY





USA.gov is the U.S. government's official web portal to all federal, state and local government web resources and services.